Regional Weather Roundup
Issued by NWS

Home | Current Version | Previous Version | Graphics & Text | Print | Product List | Glossary On
Versions: 1 2 3 4 5 6 7 8 9 10 11 12 13 14 15 16 17 18 19 20 21 22 23 24 25 26 27 28 29 30 31 32 33 34 35 36 37 38 39 40 41 42 43 44 45 46 47 48 49 50
361
ASUS43 KDTX 190001
RWRMI
MICHIGAN HOURLY REGIONAL WEATHER ROUNDUP
NATIONAL WEATHER SERVICE DETROIT/PONTIAC MI
700 PM EST THU JAN 18 2018

NOTE: "FAIR" INDICATES FEW OR NO CLOUDS BELOW 12,000 FEET WITH NO
SIGNIFICANT WEATHER AND/OR OBSTRUCTION TO VISIBILITY.

MIZ047>049-052>055-059>063-066>070-074>076-081>083-190100-
SOUTHEAST LOWER MICHIGAN

CITY           SKY/WX    TMP DP  RH WIND       PRES   REMARKS
ADRIAN         FAIR      23  14  68 SW13      30.03R WCI  11
6HR MIN TEMP:  23; 6HR MAX TEMP:  26;

ALMA           FAIR      29  18  65 SW12      29.91R WCI  19
6HR MIN TEMP:  29; 6HR MAX TEMP:  32;

ANN ARBOR      FAIR      25  15  66 S16       29.98S WCI  12
BAD AXE        FAIR      27  17  65 SW15      29.86F WCI  15
6HR MIN TEMP:  26; 6HR MAX TEMP:  27;

CARO           FAIR      27  17  65 S14       29.88F WCI  16
DETROIT CITY   FAIR      25  16  68 SW12G26   29.99R WCI  14
6HR MIN TEMP:  24; 6HR MAX TEMP:  28;

DETROIT        FAIR      24  16  71 SW20      30.01S WCI  10
6HR MIN TEMP:  24; 6HR MAX TEMP:  28;

FLINT          FAIR      28  15  58 SW12      29.92F WCI  18
6HR MIN TEMP:  24; 6HR MAX TEMP:  29;

GROSSE ILE     FAIR      25  16  70 SW10      30.01S WCI  14
6HR MIN TEMP:  24; 6HR MAX TEMP:  28;

HILLSDALE      FAIR      27  14  59 SW12      29.98S WCI  16
HOWELL         FAIR      27  16  63 SW12      29.93S WCI  17
6HR MIN TEMP:  25; 6HR MAX TEMP:  31;


CITY           SKY/WX    TMP DP  RH WIND       PRES   REMARKS
JACKSON        FAIR      27  14  58 SW17      29.97S WCI  14
6HR MIN TEMP:  24; 6HR MAX TEMP:  30;

LAMBERTVILLE   FAIR      25  15  64 SW14G20   30.04S WCI  14
6HR MIN TEMP:  24; 6HR MAX TEMP:  27;

LANSING        FAIR      28  16  60 SW14      29.94S WCI  17
6HR MIN TEMP:  25; 6HR MAX TEMP:  31;

LAPEER         FAIR      31  17  56 SW12      29.91S WCI  21
6HR MIN TEMP:  26; 6HR MAX TEMP:  31;

MASON          FAIR      27  13  57 SW8       29.95S WCI  18
6HR MIN TEMP:  26; 6HR MAX TEMP:  32;

MONROE         FAIR      26  13  59 SW13G21   30.02R WCI  14
6HR MIN TEMP:  23; 6HR MAX TEMP:  28;

MT. CLEMENS    PTCLDY    27  14  59 SW16      29.94S WCI  14
PONTIAC        FAIR      26  17  68 SW10      29.93S WCI  16
6HR MIN TEMP:  25; 6HR MAX TEMP:  30;

PORT HOPE        N/A     28  17  63 SW12G24   29.83F WCI  18
6HR MIN TEMP:  26; 6HR MAX TEMP:  28;

PORT HURON     FAIR      25  16  68 S10       29.95S WCI  15
TRI CITIES     FAIR      29  19  66 SW18      29.89R WCI  16
6HR MIN TEMP:  28; 6HR MAX TEMP:  29;

MIDLAND        FAIR      30  21  68 SW14G21   29.87F WCI  19
6HR MIN TEMP:  28; 6HR MAX TEMP:  31;

TROY           FAIR      27  17  67 SW14      29.98S WCI  15
SAGINAW HB     FAIR      28  19  69 SW13      29.89S WCI  18
$$
MIZ043>046-050>051-056>058-064>065-071>073-077>080-190100-
SOUTHWEST LOWER MICHIGAN

CITY           SKY/WX    TMP DP  RH WIND       PRES   REMARKS
BATTLE CREEK   FAIR      25  15  66 SW13      29.98R WCI  14
6HR MIN TEMP:  24; 6HR MAX TEMP:  30;

BENTON HARBOR  FAIR      29  16  58 SW10      30.01R WCI  20
6HR MIN TEMP:  26; 6HR MAX TEMP:  32;

BIG RAPIDS     FAIR      28  21  74 S10G17    29.86R WCI  19
6HR MIN TEMP:  28; 6HR MAX TEMP:  31;

COLDWATER      FAIR      26  15  61 SW13G21   30.00S WCI  15
6HR MIN TEMP:  24; 6HR MAX TEMP:  27;

FREMONT        FAIR      30  20  66 SW12G17   29.89S WCI  21
6HR MIN TEMP:  28; 6HR MAX TEMP:  31;

HOLLAND        FAIR      31  23  72 SW21      29.96R WCI  18
6HR MIN TEMP:  28; 6HR MAX TEMP:  31;

GRAND RAPIDS   FAIR      29  16  58 SW13      29.94R WCI  19
6HR MIN TEMP:  27; 6HR MAX TEMP:  32;

IONIA          FAIR      29  16  59 SW16      29.92R WCI  17
6HR MIN TEMP:  28; 6HR MAX TEMP:  31;

KALAMAZOO      FAIR      28  15  58 SW15      29.98S WCI  16
6HR MIN TEMP:  25; 6HR MAX TEMP:  31;

LUDINGTON      FAIR      32  27  83 SW14G22   29.86R WCI  22
6HR MIN TEMP:  29; 6HR MAX TEMP:  32;

MARSHALL       FAIR      24  14  63 SW12G18   29.98S WCI  13
6HR MIN TEMP:  24; 6HR MAX TEMP:  29;

MOUNT PLEASANT FAIR      29  20  69 SW13G20   29.87R WCI  19
6HR MIN TEMP:  29; 6HR MAX TEMP:  32;

MUSKEGON       FAIR      34  23  64 SW22G29   29.92R WCI  22
6HR MIN TEMP:  30; 6HR MAX TEMP:  34;

SOUTH HAVEN    FAIR      32  18  55 SW16G25   29.99R WCI  21
$$
MIZ016>042-190100-
NORTHERN LOWER MICHIGAN

CITY           SKY/WX    TMP DP  RH WIND       PRES   REMARKS
ALPENA         CLOUDY    31  24  75 SW3       29.79R
6HR MIN TEMP:  27; 6HR MAX TEMP:  32;

BEAVER ISLAND  CLOUDY    33  26  78 W15G21    29.78R WCI  22
6HR MIN TEMP:  32; 6HR MAX TEMP:  33;

BELLAIRE       CLOUDY    32  27  80 SW12G20   29.82R WCI  23
6HR MIN TEMP:  32; 6HR MAX TEMP:  35;

CADILLAC       FAIR      26  22  85 SW17G23   29.80R WCI  14
CHARLEVOIX     CLOUDY    33  28  80 SW20G25   29.82R WCI  21
6HR MIN TEMP:  32; 6HR MAX TEMP:  33;

FRANKFORT      FAIR      34  29  83 SW9       29.83S WCI  27
GAYLORD        CLOUDY    30  25  81 W16       29.76R WCI  19
6HR MIN TEMP:  26; 6HR MAX TEMP:  32;

GRAYLING       FAIR      29  22  76 SW6       29.80R WCI  23
6HR MIN TEMP:  28; 6HR MAX TEMP:  32;

HARBOR SPRINGS CLOUDY    32  27  80 SW15G25   29.78R WCI  22
HOUGHTON LAKE  FAIR      28  21  75 SW12G23   29.82R WCI  18
6HR MIN TEMP:  28; 6HR MAX TEMP:  31;

MANISTEE       FAIR      30  25  81 SW5       29.85R WCI  25
OSCODA         FAIR      28  22  77 SW13      29.79S WCI  17
6HR MIN TEMP:  28; 6HR MAX TEMP:  31;

PELLSTON       CLOUDY    33  28  81 W15G24    29.77R WCI  23
6HR MIN TEMP:  31; 6HR MAX TEMP:  33; 6HR PCP: TRACE;

ROGERS CITY    CLOUDY    29  24  82 CALM      29.78R
TRAVERSE CITY  FAIR      31  23  72 SW8       29.81R WCI  23
6HR MIN TEMP:  31; 6HR MAX TEMP:  35;

$$
MIZ007>008-015-190100-
EASTERN UPPER MICHIGAN

CITY           SKY/WX    TMP DP  RH WIND       PRES   REMARKS
KINROSS        CLOUDY    30  27  88 SW5       29.75R WCI  25
6HR MIN TEMP:  30; 6HR MAX TEMP:  32;

MACKINAC ISLAN CLOUDY    32  28  85 W14       29.76R WCI  22
6HR MIN TEMP:  30; 6HR MAX TEMP:  32;

NEWBERRY       CLOUDY    26  22  85 SW6       29.75R WCI  19
6HR MIN TEMP:  26; 6HR MAX TEMP:  29;

S. S. MARIE    CLOUDY    32  26  78 SE7       29.75R WCI  26
6HR MIN TEMP:  30; 6HR MAX TEMP:  34; 6HR PCP: TRACE;

MUNISING         N/A     28  22  78 SW8       29.74R WCI  20
6HR MIN TEMP:  26; 6HR MAX TEMP:  28;

$$
MIZ004>006-011>014-085-190100-
CENTRAL UPPER MICHIGAN

CITY           SKY/WX    TMP DP  RH WIND       PRES   REMARKS
MANISTIQUE     CLOUDY    27  22  82 SW3       29.77R
6HR MIN TEMP:  26; 6HR MAX TEMP:  27;

ESCANABA       CLOUDY    28  24  85 SW3       29.78R
6HR MIN TEMP:  26; 6HR MAX TEMP:  32;

MENOMINEE      FAIR      29  21  72 SW8       29.79R WCI  21
6HR MIN TEMP:  27; 6HR MAX TEMP:  35;

SAWYER-GWINN   CLOUDY    30  23  74 SW3       29.72R
$$
MIZ001>003-009>011-084-190100-
WESTERN UPPER MICHIGAN

CITY           SKY/WX    TMP DP  RH WIND       PRES   REMARKS
IRON MOUNTAIN  CLOUDY    33  24  69 CALM      29.73R
6HR MIN TEMP:  29; 6HR MAX TEMP:  35;

HOUGHTON       CLOUDY    33  26  75 W12       29.69S WCI  24
6HR MIN TEMP:  30; 6HR MAX TEMP:  33;

COPPER HARBOR    N/A     32  29  88 N7        29.69S WCI  26
6HR MIN TEMP:  30; 6HR MAX TEMP:  34;

IRONWOOD       MOCLDY    27  23  85 CALM      29.73S
6HR MIN TEMP:  26; 6HR MAX TEMP:  33;

$$

ABBREVIATIONS USED IN REMARKS
   TC - TEMPERATURE IN CELSIUS
  WCI - WIND CHILL INDEX
   HX - HEAT INDEX
  VSB - VISIBILITY





USA.gov is the U.S. government's official web portal to all federal, state and local government web resources and services.